Regional Weather Roundup
Issued by NWS

Home | Current Version | Previous Version | Graphics & Text | Print | Product List | Glossary On
Versions: 1 2 3 4 5 6 7 8 9 10 11 12 13 14 15 16 17 18 19 20 21 22 23 24 25 26 27 28 29 30 31 32 33 34 35 36 37 38 39 40 41 42 43 44 45 46 47 48 49 50
000
ASUS43 KMKX 092300
RWRWI

WISCONSIN REGIONAL WEATHER ROUNDUP
NATIONAL WEATHER SERVICE MILWAUKEE/SULLIVAN WI
600 PM CDT WED JUL 09 2014

NOTE: "FAIR" INDICATES FEW OR NO CLOUDS BELOW 12,000 FEET WITH NO
SIGNIFICANT WEATHER AND/OR OBSTRUCTIONS TO VISIBILITY.

WIZ001-002-006>008-014>016-023>028-100000-
NORTHWEST WISCONSIN

CITY           SKY/WX    TMP DP  RH WIND       PRES   REMARKS
SUPERIOR ARPT  SUNNY     74  50  42 N6        29.98S
ASHLAND        SUNNY     71  50  47 CALM      30.01S
HAYWARD        MOSUNNY   72  49  44 N5        30.01S
SIREN          PTSUNNY   75  53  45 SW5       30.00S
RICE LAKE      MOSUNNY   73  53  50 NW3       30.02R
LADYSMITH      PTSUNNY   69  50  51 N3        30.03S
EAU CLAIRE     NOT AVBL
MENOMONIE      CLEAR     76  52  43 W3        30.00S
NEW RICHMOND   SUNNY     74  52  45 W5        30.00S
OSCEOLA        SUNNY     76  51  42 W6        30.02R
$$

WIZ003>005-009-010-017-018-100000-
NORTH CENTRAL WISCONSIN

CITY           SKY/WX    TMP DP  RH WIND       PRES   REMARKS
WOODRUFF       MOSUNNY   67  47  47 NW10G17   30.03R
RHINELANDER    SUNNY     65  44  46 N7        30.03R
EAGLE RIVER    MOSUNNY   63  44  49 N9        30.02R
LAND O LAKES   PTSUNNY   63  46  55 NW5       30.03S
PHILLIPS       MOSUNNY   67  50  54 N3        30.02S
TOMAHAWK       SUNNY     67  47  48 NW8G17    30.03R
MEDFORD        PTSUNNY   68  49  50 N8        30.02S
MERRILL        MOSUNNY   68  48  47 N10       30.02S
$$

WIZ029-030-035-036-043>047-100000-
CENTRAL WISCONSIN

CITY           SKY/WX    TMP DP  RH WIND       PRES   REMARKS
WAUSAU         MOSUNNY   70  48  45 N7        30.00S
MOSINEE        MOSUNNY   68  50  52 N8        30.03R
MARSHFIELD     SUNNY     70  50  49 N8        30.01S
STEVENS POINT  PTSUNNY   67  48  50 NW5       30.02R
WAUPACA        CLOUDY    71  50  46 N8        30.01S
WAUTOMA        NOT AVBL
WISC RAPIDS    CLOUDY    74  49  41 N14       30.02S
CAMP DOUGLAS   NOT AVBL
$$

WIZ011>013-019>022-031-037>040-048>050-100000-
NORTHEAST WISCONSIN

CITY           SKY/WX    TMP DP  RH WIND       PRES   REMARKS
ANTIGO         PTSUNNY   65  49  55 N7        30.02S
STURGEON BAY   CLOUDY    64  52  63 NW3       30.00S
GREEN BAY      PTSUNNY   70  50  49 N10       29.99R
MANITOWOC      NOT AVBL
APPLETON       MOSUNNY   70  46  43 NW12      30.00S
CLINTONVILLE   MOSUNNY   70  45  40 NW9G16    30.00S
OSHKOSH        CLOUDY    70  51  51 NW10      30.00R
$$

WIZ032>034-041-042-053>061-100000-
SOUTHWEST WISCONSIN

CITY           SKY/WX    TMP DP  RH WIND       PRES   REMARKS
LA CROSSE      SUNNY     78  52  40 N3        30.00S
SPARTA         SUNNY     75  48  39 NW6       30.02S
VIROQUA        MOCLDY    74  52  46 W7        30.03S
BOSCOBEL       SUNNY     78  53  41 NW7       30.01S
PRAIRIE DU CHI SUNNY     75  52  43 CALM      30.01S
PLATTEVILLE    FAIR      75  53  45 NW8       30.03S
$$

WIZ056-057-062-063-064-067-068-100000-
SOUTH CENTRAL WISCONSIN

CITY           SKY/WX    TMP DP  RH WIND       PRES   REMARKS
BARABOO/DELLS  MOSUNNY   74  47  38 W7        30.02S
LONE ROCK      NOT AVBL
WATERTOWN      SUNNY     72  51  46 NW6       30.00S
MADISON        MOSUNNY   74  50  42 N7        30.01S
MIDDLETON      FAIR      75  47  37 NW10      30.02S
MONROE         MOSUNNY   73  50  43 NW8       30.02R
JANESVILLE     MOSUNNY   75  46  35 N15       30.00S
$$

WIZ051-052-058>065-066-070>072-100000-
SOUTHEAST WISCONSIN

CITY           SKY/WX    TMP DP  RH WIND       PRES   REMARKS
MILWAUKEE      MOSUNNY   67  58  72 SE8       30.00R
WAUKESHA       MOSUNNY   70  48  46 NW12      30.01R
MILWAUKEE/TIMM NOT AVBL
RACINE         SUNNY     67  58  72 VRB7      30.02R
BURLINGTON     SUNNY     72  50  47 NW8G17    30.00R
KENOSHA        MOSUNNY   69  60  73 E9        30.00R
FOND DU LAC    CLOUDY    71  50  47 N10       30.00R
SHEBOYGAN      CLOUDY    70  50  49 N6        29.99S
WEST BEND      CLOUDY    70  45  40 NW9       30.00R
JUNEAU         CLOUDY    71  32  24 NW6       30.02R
$$

LSZ147-162-100000-
LAKE SUPERIOR

STATION/POSITION TIME  TEMP    WIND        PRES    WAVE
                       AIR SEA DIR/SP/G            HT/PER
                 (UTC) (F)     (DEG/KT/KT) (MB)    (FT/S)
W MID LAKE BUOY  2150   45 38  210/ 10/ 12 1015.8F   0
DEVILS ISLAND    2100   64     210/  8/  9 1015.7R
PORT WING        2200   73      30/  2/  3 1015.6
SAXON HARBOR     2200           70/  2/  3 1016.6R
$$

LMZ867-665-643>646-100000-
LAKE MICHIGAN

STATION/POSITION TIME  TEMP    WIND        PRES    WAVE
                       AIR SEA DIR/SP/G            HT/PER
                 (UTC) (F)     (DEG/KT/KT) (MB)    (FT/S)
N MID LAKE BUOY  2150   59 57  230/  6/  6 1014.8R   0
NORTHPORT PIER   2200   64     320/  5/  6 1015.2R
KEWAUNEE LAKESHO 2200   56     140/  3/  5 1016.4R
SHEBOYGAN LAKESH 2200   62     170/ 13/ 14 1015.5R
PORT WASHINGTON  2200   67     190/  3/  5 1016.3R
ATWATER BUOY     2200   62     150/  6     1016.7R
MILWAUKEE LAKESH 2200   62     160/  1/  2   N/A
S MID LAKE BUOY  2150   59 58  150/  2/  4 1015.7R   0
KENOSHA   LAKESH 2200   64     140/  8/ 11   N/A
$$

TC  - TEMPERATURE IN CELSIUS
VSB - VISIBILITY IN STATUTE MILES
WCI - WIND CHILL INDEX
HX  - HEAT INDEX




USA.gov is the U.S. government's official web portal to all federal, state and local government web resources and services.